Location: Belfast
(54.5830°N, 5.9330°W)
Time: 04:41:53
(UTC+01:00)

Envisat - Visible Passes

Search period start: 21 April 2018 00:00
Search period end: 01 May 2018 00:00
Orbit: 764 x 766 km, 98.2° (Epoch: 20 April)

Date Brightness Start Highest point End Pass type
(mag) Time Alt. Az. Time Alt. Az. Time Alt. Az.
21 Apr 5.3 21:50:04 10° SW 21:54:05 23° W 21:58:07 10° NW visible
23 Apr 5.7 22:17:11 10° WSW 22:20:02 15° W 22:22:52 10° NW visible
24 Apr 5.1 21:38:30 10° SSW 21:42:49 27° W 21:47:09 10° NNW visible
26 Apr 5.6 22:05:17 10° SW 22:08:42 18° W 22:12:09 10° NW visible
27 Apr 4.8 21:27:00 10° SSW 21:31:34 33° W 21:36:09 10° NNW visible
28 Apr 5.9 22:33:13 10° W 22:34:43 11° W 22:36:13 10° WNW visible
29 Apr 5.5 21:53:33 10° SW 21:57:24 21° W 22:01:18 10° NW visible
